Location: Unspecified
(35.7250°N, 0.0000°E)
Time: 11:50:13
(UTC+00:00)

Explorer 7 - Pass Details

Date: 24 June 2019
Orbit: 485 x 680 km, 50.3° (Epoch: 19 July)

Event Time Altitude Azimuth Distance (km) Brightness Sun altitude
Rises 12:12:11 0° 315° (NW) 2,908 10.4 77.5°
Reaches altitude 10° 12:15:06 10° 334° (NNW) 2,035 9.7 77.4°
Maximum altitude 12:18:25 19° 18° (NNE) 1,574 9.3 77.2°
Drops below altitude 10° 12:21:48 10° 63° (ENE) 2,092 9.8 77.0°
Sets 12:24:51 0° 81° (E) 3,021 10.5 76.8°
